Location: Hertford
(51.8000°N, 0.0667°W)
Time: 19:16:10
(UTC+00:00)

Cosmos 1937 Rocket - Visible Passes

Search period start: 26 January 2021 00:00
Search period end: 05 February 2021 00:00
Orbit: 745 x 781 km, 74.0° (Epoch: 25 January)

Date Brightness Start Highest point End Pass type
(mag) Time Alt. Az. Time Alt. Az. Time Alt. Az.
26 Jan 3.5 18:28:10 10° S 18:33:24 62° ESE 18:37:18 18° NNE visible
26 Jan 5.3 20:11:14 10° WSW 20:15:48 28° NW 20:17:31 24° NNW visible
27 Jan 4.0 17:50:13 10° S 17:55:06 39° ESE 18:00:02 10° NE visible
27 Jan 4.7 19:32:04 10° SW 19:37:05 41° NW 19:40:28 19° N visible
27 Jan 6.3 21:18:38 10° NW 21:20:37 12° NNW 21:20:40 12° NNW visible
28 Jan 4.6 17:12:40 10° SSE 17:16:54 25° E 17:21:09 10° NE visible
28 Jan 4.0 18:53:11 10° SW 18:58:28 62° WNW 19:03:19 12° NNE visible
28 Jan 6.0 20:38:20 10° WNW 20:41:35 16° NW 20:43:30 14° NNW visible
29 Jan 3.5 18:14:38 10° SSW 18:19:58 86° ESE 18:25:20 10° NNE visible
29 Jan 5.7 19:58:34 10° W 20:02:40 22° NW 20:06:15 12° N visible
30 Jan 3.7 17:36:24 10° S 17:41:35 55° ESE 17:46:47 10° NNE visible
30 Jan 5.2 19:19:09 10° WSW 19:23:51 31° NW 19:28:35 10° NNE visible
31 Jan 4.6 18:40:04 10° SW 18:45:10 45° WNW 18:50:17 10° NNE visible
31 Jan 6.2 20:26:14 10° WNW 20:28:35 13° NNW 20:30:57 10° N visible
01 Feb 3.9 18:01:17 10° SSW 18:06:35 69° WNW 18:11:55 10° NNE visible
01 Feb 6.0 19:46:06 10° W 19:49:35 17° NW 19:53:05 10° N visible
02 Feb 3.6 17:22:48 10° SSW 17:28:07 78° ESE 17:33:27 10° NNE visible
02 Feb 5.6 19:06:26 10° W 19:10:42 24° NW 19:14:59 10° N visible
03 Feb 5.1 18:27:06 10° WSW 18:31:55 34° NW 18:36:45 10° NNE visible
03 Feb 6.4 20:14:51 10° NW 20:15:39 10° NNW 20:16:27 10° NNW visible
04 Feb 4.4 17:48:05 10° SW 17:53:15 50° WNW 17:58:27 10° NNE visible
04 Feb 6.1 19:33:53 10° WNW 19:36:35 14° NW 19:39:16 10° N visible
